CW1084 Weather Reports


Display with metric or nautical units.
time (UTC)temp
F
wind
direction
speed
MPH
gust
MPH
rain 1hr
in
rain 24hr
in
rain mn
in
humidity
%
barometer
mb
20260901115053 78 172 0.0 0.0 0.00 0.00 0.00 100 1015.7
20260901114325 78 172 0.0 1.0 0.00 0.00 0.00 100 1015.7
20260901113820 78 172 0.0 5.0 0.00 0.00 0.00 100 1015.7
20260901113302 78 168 0.0 2.0 0.00 0.00 0.00 100 1015.7
20260901112815 78 168 0.0 2.0 0.00 0.00 0.00 100 1015.6
20260901112253 78 168 0.0 0.0 0.00 0.00 0.00 100 1015.5
20260901111748 78 168 0.0 0.0 0.00 0.00 0.00 100 1015.4
20260901111243 78 168 0.0 0.0 0.00 0.00 0.00 100 1015.4
20260901110742 78 168 0.0 0.0 0.00 0.00 0.00 100 1015.4
20260901110223 78 168 0.0 0.0 0.00 0.00 0.00 100 1015.2
20260901105722 78 168 0.0 0.0 0.00 0.00 0.00 100 1015.1
20260901105431 78 168 0.0 0.0 0.00 0.00 0.00 100 1015.1
20260901104706 78 168 0.0 0.0 0.00 0.00 0.00 100 1015.0
20260901104203 78 168 0.0 0.0 0.00 0.00 0.00 100 1015.1
20260901104152 78 168 0.0 0.0 0.00 0.00 0.00 100 1015.0
20260901103143 78 169 0.0 0.0 0.00 0.00 0.00 100 1015.1
20260901102653 78 168 0.0 0.0 0.00 0.00 0.00 100 1015.2
20260901102642 78 168 0.0 0.0 0.00 0.00 0.00 100 1015.1
20260901101648 78 169 0.0 0.0 0.00 0.00 0.00 100 1015.3
20260901101141 78 168 0.0 0.0 0.00 0.00 0.00 100 1015.4
20260901100632 78 168 0.0 0.0 0.00 0.00 0.00 100 1015.3
20260901100130 78 169 0.0 0.0 0.00 0.00 0.00 100 1015.3
20260901095631 78 168 0.0 0.0 0.00 0.00 0.00 100 1015.3
20260901095128 78 168 0.0 0.0 0.00 0.00 0.00 100 1015.2
20260901094621 78 169 0.0 0.0 0.00 0.00 0.00 100 1015.2
20260901094123 78 168 0.0 0.0 0.00 0.00 0.00 100 1015.2
20260901093830 78 169 0.0 0.0 0.00 0.00 0.00 100 1015.2
20260901093333 79 169 0.0 0.0 0.00 0.00 0.00 100 1015.2
20260901092558 79 169 0.0 0.0 0.00 0.00 0.00 100 1015.2
20260901092327 79 169 0.0 0.0 0.00 0.00 0.00 100 1015.2
20260901091548 79 169 0.0 0.0 0.00 0.00 0.00 100 1015.2
20260901091038 79 169 0.0 0.0 0.00 0.00 0.00 100 1015.2
20260901090536 79 169 0.0 0.0 0.00 0.00 0.00 100 1015.2
20260901090018 79 169 0.0 0.0 0.00 0.00 0.00 100 1015.2
20260901085504 79 169 0.0 0.0 0.00 0.00 0.00 100 1015.2
20260901084955 79 169 0.0 0.0 0.00 0.00 0.00 100 1015.2
20260901084451 79 169 0.0 3.0 0.00 0.00 0.00 100 1015.1
20260901083943 79 169 0.0 3.0 0.00 0.00 0.00 100 1015.1
20260901083437 80 167 0.0 1.0 0.00 0.00 0.00 100 1015.1
20260901082933 80 163 0.0 0.0 0.00 0.00 0.00 100 1015.1
20260901082414 80 163 0.0 0.0 0.00 0.00 0.00 100 1015.2
20260901081907 80 163 0.0 0.0 0.00 0.00 0.00 100 1015.3
20260901081355 80 163 0.0 0.0 0.00 0.00 0.00 100 1015.2
20260901081108 80 163 0.0 0.0 0.00 0.00 0.00 100 1015.3
20260901080328 80 163 0.0 0.0 0.00 0.00 0.00 100 1015.3
20260901075827 80 163 0.0 0.0 0.00 0.00 0.00 100 1015.4
20260901075320 80 163 0.0 0.0 0.00 0.00 0.00 100 1015.4
20260901075046 80 162 0.0 0.0 0.00 0.00 0.00 100 1015.4
20260901074308 80 162 0.0 0.0 0.00 0.00 0.00 100 1015.4
20260901073755 80 162 0.0 0.0 0.00 0.00 0.00 100 1015.4
20260901073742 80 162 0.0 0.0 0.00 0.00 0.00 100 1015.4
20260901072739 80 162 0.0 0.0 0.00 0.00 0.00 100 1015.4
20260901072231 80 160 0.0 0.0 0.00 0.00 0.00 100 1015.5
20260901071731 80 160 0.0 0.0 0.00 0.00 0.00 100 1015.5
20260901071214 80 160 0.0 0.0 0.00 0.00 0.00 100 1015.5
20260901070658 80 160 0.0 0.0 0.00 0.00 0.00 100 1015.5
20260901070203 80 160 0.0 0.0 0.00 0.00 0.00 100 1015.5
20260901065908 80 132 0.0 0.0 0.00 0.00 0.00 100 1015.5
20260901065128 80 131 0.0 0.0 0.00 0.00 0.00 100 1015.5
20260901064626 80 131 0.0 0.0 0.00 0.00 0.00 100 1015.5
20260901064121 80 131 0.0 0.0 0.00 0.00 0.00 100 1015.6
20260901063608 80 131 0.0 0.0 0.00 0.00 0.00 100 1015.6
20260901063341 80 131 0.0 0.0 0.00 0.00 0.00 100 1015.7
20260901062554 80 131 0.0 0.0 0.00 0.00 0.00 100 1015.7
20260901062050 80 131 0.0 0.0 0.00 0.00 0.00 100 1015.7
20260901061551 80 131 0.0 0.0 0.00 0.00 0.00 100 1015.7
20260901061054 80 131 0.0 0.0 0.00 0.00 0.00 100 1015.8
20260901060541 80 131 0.0 0.0 0.00 0.00 0.00 100 1015.8
20260901060019 80 131 0.0 0.0 0.00 0.00 0.00 100 1015.8
20260901055517 80 131 0.0 0.0 0.00 0.00 0.00 100 1015.9
20260901055013 80 131 0.0 0.0 0.00 0.00 0.00 100 1016.0
20260901054511 81 131 0.0 0.0 0.00 0.00 0.00 100 1016.1
20260901054012 81 131 0.0 0.0 0.00 0.00 0.00 100 1016.2
20260901053506 81 131 0.0 0.0 0.00 0.00 0.00 100 1016.2
20260901053002 81 131 0.0 0.0 0.00 0.00 0.00 100 1016.3
20260901052516 81 131 0.0 0.0 0.00 0.00 0.00 100 1016.4
20260901051957 81 131 0.0 0.0 0.00 0.00 0.00 100 1016.3
20260901051454 81 131 0.0 0.0 0.00 0.00 0.00 100 1016.3
20260901050954 81 131 0.0 0.0 0.00 0.00 0.00 100 1016.4
20260901050445 81 131 0.0 0.0 0.00 0.00 0.00 100 1016.4
20260901045939 81 131 0.0 0.0 0.00 0.00 0.00 100 1016.4
20260901045427 81 131 0.0 0.0 0.00 0.00 0.00 100 1016.5
20260901044918 81 131 0.0 0.0 0.00 0.00 0.00 100 1016.5
20260901044413 81 131 0.0 0.0 0.00 0.00 0.00 100 1016.5
20260901043908 82 131 0.0 0.0 0.00 0.00 0.00 100 1016.5
20260901043410 82 131 0.0 0.0 0.00 0.00 0.00 100 1016.5
20260901042858 82 131 0.0 0.0 0.00 0.00 0.00 100 1016.5
20260901042350 82 131 0.0 0.0 0.00 0.00 0.00 100 1016.6
20260901042338 82 131 0.0 0.0 0.00 0.00 0.00 100 1016.6
20260901041333 82 131 0.0 0.0 0.00 0.00 0.00 100 1016.6
20260901040824 82 131 0.0 0.0 0.00 0.00 0.00 100 1016.6
20260901040308 83 131 0.0 0.0 0.00 0.00 0.00 100 1016.5
20260901035804 83 131 0.0 0.0 0.00 0.00 0.00 100 1016.6
20260901035527 83 131 0.0 0.0 0.00 0.00 0.00 100 1016.6
20260901035020 83 131 0.0 0.0 0.00 0.00 0.00 100 1016.6
20260901034240 83 131 0.0 0.0 0.00 0.00 0.00 100 1016.5
20260901033742 83 131 0.0 0.0 0.00 0.00 0.00 100 1016.6
20260901033230 83 131 0.0 0.0 0.00 0.00 0.00 100 1016.5
20260901032723 83 131 0.0 0.0 0.00 0.00 0.00 100 1016.4
20260901032215 83 131 0.0 0.0 0.00 0.00 0.00 100 1016.3
20260901031707 83 131 0.0 0.0 0.00 0.00 0.00 100 1016.4
20260901031209 83 131 0.0 0.0 0.00 0.00 0.00 100 1016.4
20260901030652 83 131 0.0 0.0 0.00 0.00 0.00 100 1016.4
20260901030159 83 131 0.0 0.0 0.00 0.00 0.00 100 1016.4
20260901025636 83 131 0.0 0.0 0.00 0.00 0.00 100 1016.3
20260901025133 83 131 0.0 0.0 0.00 0.00 0.00 100 1016.4
20260901024618 83 131 0.0 0.0 0.00 0.00 0.00 100 1016.4
20260901024104 83 131 0.0 0.0 0.00 0.00 0.00 100 1016.3
20260901023605 83 131 0.0 0.0 0.00 0.00 0.00 100 1016.3
20260901023115 83 131 0.0 0.0 0.00 0.00 0.00 100 1016.3
20260901022559 83 131 0.0 0.0 0.00 0.00 0.00 100 1016.3
20260901022055 83 131 0.0 0.0 0.00 0.00 0.00 100 1016.4
20260901021543 84 131 0.0 0.0 0.00 0.00 0.00 100 1016.4
20260901021255 84 131 0.0 0.0 0.00 0.00 0.00 100 1016.4
20260901021154 84 131 0.0 0.0 0.00 0.00 0.00 100 1016.5
20260901020047 84 131 0.0 0.0 0.00 0.00 0.00 100 1016.5
20260901015529 84 131 0.0 0.0 0.00 0.00 0.00 100 1016.6
20260901015016 84 131 0.0 0.0 0.00 0.00 0.00 100 1016.6
20260901014521 84 131 0.0 0.0 0.00 0.00 0.00 100 1016.6
20260901014247 85 131 0.0 0.0 0.00 0.00 0.00 100 1016.5
20260901013507 85 131 0.0 0.0 0.00 0.00 0.00 100 1016.5
20260901013012 85 131 0.0 0.0 0.00 0.00 0.00 100 1016.5
20260901012449 85 131 0.0 0.0 0.00 0.00 0.00 100 1016.5
20260901011948 85 131 0.0 0.0 0.00 0.00 0.00 100 1016.4
20260901011434 85 131 0.0 0.0 0.00 0.00 0.00 100 1016.3
20260901011206 85 131 0.0 6.0 0.00 0.00 0.00 100 1016.4
20260901010432 85 131 0.0 6.0 0.00 0.00 0.00 100 1016.4
20260901010148 85 129 0.0 0.0 0.00 0.00 0.00 100 1016.4
20260901005409 85 129 0.0 1.0 0.00 0.00 0.00 100 1016.5
20260901004909 85 129 0.0 1.0 0.00 0.00 0.00 100 1016.6
20260901004402 85 129 0.0 3.0 0.00 0.00 0.00 100 1016.5
20260901003857 86 130 0.0 3.0 0.00 0.00 0.00 100 1016.6
20260901003345 86 130 0.0 0.0 0.00 0.00 0.00 100 1016.5
20260901003113 86 130 0.0 0.0 0.00 0.00 0.00 100 1016.4
20260901002317 86 130 0.0 0.0 0.00 0.00 0.00 100 1016.4
20260901001813 86 130 0.0 2.0 0.00 0.00 0.00 100 1016.4
20260901001307 86 130 0.0 2.0 0.00 0.00 0.00 100 1016.4
20260901000805 86 130 0.0 1.0 0.00 0.00 0.00 100 1016.3
20260901000253 87 130 0.0 1.0 0.00 0.00 0.00 100 1016.3
20260831235751 87 130 0.0 0.0 0.00 0.00 0.00 100 1016.3
20260831235239 87 130 0.0 0.0 0.00 0.00 0.00 100 1016.3
20260831234727 87 130 0.0 0.0 0.00 0.00 0.00 100 1016.4
20260831234226 87 130 0.0 0.0 0.00 0.00 0.00 100 1016.4
20260831233709 87 130 0.0 0.0 0.00 0.00 0.00 100 1016.4
20260831233210 87 130 0.0 0.0 0.00 0.00 0.00 100 1016.4
20260831232922 88 130 0.0 0.0 0.00 0.00 0.00 100 1016.5
20260831232144 88 130 0.0 0.0 0.00 0.00 0.00 100 1016.5
20260831231645 88 130 0.0 0.0 0.00 0.00 0.00 100 1016.4
20260831231130 88 130 0.0 0.0 0.00 0.00 0.00 100 1016.4
20260831230907 88 130 0.0 0.0 0.00 0.00 0.00 100 1016.5
20260831230123 88 130 0.0 0.0 0.00 0.00 0.00 100 1016.5
20260831225617 88 130 0.0 0.0 0.00 0.00 0.00 100 1016.4
20260831225113 88 130 0.0 0.0 0.00 0.00 0.00 100 1016.4
20260831224611 87 130 0.0 0.0 0.00 0.00 0.00 100 1016.4
20260831224333 87 130 0.0 0.0 0.00 0.00 0.00 100 1016.5
20260831223551 87 130 0.0 0.0 0.00 0.00 0.00 100 1016.6
20260831223011 87 130 0.0 0.0 0.00 0.00 0.00 100 1016.6
20260831222725 87 130 0.0 0.0 0.00 0.00 0.00 100 1016.6
20260831222001 87 130 0.0 0.0 0.00 0.00 0.00 100 1016.6
20260831221457 87 130 0.0 0.0 0.00 0.00 0.00 100 1016.6
20260831220958 87 130 0.0 0.0 0.00 0.00 0.00 100 1016.6
20260831220456 87 130 0.0 0.0 0.00 0.00 0.00 100 1016.9
20260831215940 87 130 0.0 0.0 0.00 0.00 0.00 100 1016.9
20260831215441 87 130 0.0 0.0 0.00 0.00 0.00 100 1016.9
20260831214914 87 130 0.0 0.0 0.00 0.00 0.00 100 1016.7
20260831214410 86 130 0.0 0.0 0.00 0.00 0.00 100 1016.7
20260831214121 86 130 0.0 1.0 0.00 0.00 0.00 100 1016.7
20260831213623 86 130 0.0 1.0 0.00 0.00 0.00 100 1016.7
20260831212853 86 130 0.0 0.0 0.00 0.00 0.00 100 1016.9
20260831212342 86 130 0.0 0.0 0.00 0.00 0.00 100 1016.9
20260831211838 87 130 0.0 1.0 0.00 0.00 0.00 100 1016.7
20260831211327 87 130 0.0 1.0 0.00 0.00 0.00 100 1016.6
20260831211039 87 130 0.0 0.0 0.00 0.00 0.00 100 1016.5
20260831210323 88 130 0.0 1.0 0.00 0.00 0.00 100 1016.5
20260831205759 88 130 0.0 2.0 0.00 0.00 0.00 100 1016.4
20260831205247 89 130 0.0 2.0 0.00 0.00 0.00 100 1016.4
20260831204743 89 130 0.0 5.0 0.00 0.00 0.00 100 1016.3
20260831204226 89 130 0.0 5.0 0.00 0.00 0.00 100 1016.1
20260831203726 89 130 0.0 4.0 0.00 0.00 0.00 100 1016.1
20260831203209 89 130 0.0 4.0 0.00 0.00 0.00 100 1016.1
20260831202711 89 130 0.0 3.0 0.00 0.00 0.00 100 1016.2
20260831202216 90 139 0.0 6.0 0.00 0.00 0.00 100 1016.2
20260831201709 90 139 0.0 6.0 0.00 0.00 0.00 100 1016.3
20260831201202 89 150 0.0 4.0 0.00 0.00 0.00 100 1016.4
20260831200701 89 153 1.0 7.0 0.00 0.00 0.00 100 1016.5
20260831200200 89 156 1.0 7.0 0.00 0.00 0.00 100 1016.6
20260831195649 89 107 0.0 5.0 0.00 0.00 0.00 100 1016.5
20260831195152 89 126 0.0 5.0 0.00 0.00 0.00 100 1016.5
20260831195132 88 126 0.0 4.0 0.00 0.00 0.00 100 1016.5
20260831194147 88 128 0.0 3.0 0.00 0.00 0.00 100 1016.5
20260831193646 88 128 0.0 4.0 0.00 0.00 0.00 100 1016.7
20260831193145 88 130 0.0 4.0 0.00 0.00 0.00 100 1016.9
20260831192631 88 130 0.0 4.0 0.00 0.00 0.00 100 1017.0
20260831192133 88 130 0.0 4.0 0.00 0.00 0.00 100 1017.1
20260831191625 87 130 0.0 4.0 0.00 0.00 0.00 100 1017.1
20260831191123 87 130 0.0 4.0 0.00 0.00 0.00 100 1017.1
20260831190619 87 130 0.0 3.0 0.00 0.00 0.00 100 1017.0
20260831190106 0 0.0 0.0 0.00 0.00 0.00 1016.9
20260831185601 0 0.0 0.0 0.00 0.00 0.00 1017.0
20260831185024 0 0.0 0.0 0.00 0.00 0.00 1017.2
20260831184510 0 0.0 0.0 0.00 0.00 0.00 1017.2
20260831184002 0 0.0 0.0 0.00 0.00 0.00 1017.3
20260831183420 0 0.0 0.0 0.00 0.00 0.00 1017.4
20260831183140 0 0.0 0.0 0.00 0.00 0.00 1017.2
20260831182401 0 0.0 0.0 0.00 0.00 0.00 1017.2
20260831181902 0 0.0 0.0 0.00 0.00 0.00 1017.2
20260831181605 0 0.0 0.0 0.00 0.00 0.00 1017.4
20260831180826 0 0.0 0.0 0.00 0.00 0.00 1017.4
20260831180317 0 0.0 0.0 0.00 0.00 0.00 1017.4
20260831180035 0 0.0 0.0 0.00 0.00 0.00 1017.3
20260831175748 0 0.0 0.0 0.00 0.00 0.00 1017.3
20260831174717 0 0.0 0.0 0.00 0.00 0.00 1017.3
20260831174131 0 0.0 0.0 0.00 0.00 0.00 1017.3
20260831173611 0 0.0 0.0 0.00 0.00 0.00 1017.2
20260831173055 0 0.0 0.0 0.00 0.00 0.00 1017.3
20260831172516 0 0.0 0.0 0.00 0.00 0.00 1017.4
20260831171708 0 0.0 0.0 0.00 0.00 0.00 1017.5
20260831170900 0 0.0 0.0 0.00 0.00 0.00 1017.6
20260831170545 0 0.0 0.0 0.00 0.00 0.00 1017.5
20260831165741 0 0.0 0.0 0.00 0.00 0.00 1017.6
20260831165217 0 0.0 0.0 0.00 0.00 0.00 1017.6
20260831164720 0 0.0 0.0 0.00 0.00 0.00 1017.6
20260831164208 0 0.0 0.0 0.00 0.00 0.00 1017.7
20260831163658 0 0.0 0.0 0.00 0.00 0.00 1017.8
20260831163135 0 0.0 0.0 0.00 0.00 0.00 1017.9
20260831162628 0 0.0 0.0 0.00 0.00 0.00 1017.8
20260831162123 0 0.0 0.0 0.00 0.00 0.00 1017.8
20260831161602 0 0.0 0.0 0.00 0.00 0.00 1017.8
20260831161106 0 0.0 0.0 0.00 0.00 0.00 1017.8
20260831160540 0 0.0 0.0 0.00 0.00 0.00 1017.8
20260831160032 0 0.0 0.0 0.00 0.00 0.00 1017.8
20260831155508 0 0.0 0.0 0.00 0.00 0.00 1017.7
20260831155002 0 0.0 0.0 0.00 0.00 0.00 1017.7
20260831154638 0 0.0 0.0 0.00 0.00 0.00 1017.7
20260831153906 0 0.0 0.0 0.00 0.00 0.00 1017.6
20260831153607 0 0.0 0.0 0.00 0.00 0.00 1017.6
20260831152832 0 0.0 0.0 0.00 0.00 0.00 1017.6
20260831152309 0 0.0 0.0 0.00 0.00 0.00 1017.6
20260831151810 0 0.0 0.0 0.00 0.00 0.00 1017.6
20260831151310 0 0.0 0.0 0.00 0.00 0.00 1017.7
20260831150758 0 0.0 0.0 0.00 0.00 0.00 1017.7
20260831150251 0 0.0 0.0 0.00 0.00 0.00 1017.7
20260831145706 0 0.0 0.0 0.00 0.00 0.00 1017.8
20260831145206 0 0.0 0.0 0.00 0.00 0.00 1017.7
20260831144641 0 0.0 0.0 0.00 0.00 0.00 1017.8
20260831144138 0 0.0 0.0 0.00 0.00 0.00 1017.8
20260831143613 0 0.0 0.0 0.00 0.00 0.00 1017.9
20260831143108 0 0.0 0.0 0.00 0.00 0.00 1017.8
20260831142535 0 0.0 0.0 0.00 0.00 0.00 1017.8
20260831141959 0 0.0 0.0 0.00 0.00 0.00 1017.8
20260831141407 0 0.0 0.0 0.00 0.00 0.00 1017.8
20260831140851 0 0.0 0.0 0.00 0.00 0.00 1017.7
20260831140304 0 0.0 0.0 0.00 0.00 0.00 1017.7
20260831135732 0 0.0 0.0 0.00 0.00 0.00 1017.7
20260831135206 0 0.0 0.0 0.00 0.00 0.00 1017.7
20260831134656 0 0.0 0.0 0.00 0.00 0.00 1017.7
20260831134115 0 0.0 0.0 0.00 0.00 0.00 1017.7
20260831133529 0 0.0 0.0 0.00 0.00 0.00 1017.7
20260831133501 0 0.0 0.0 0.00 0.00 0.00 1017.7
20260831132726 0 0.0 0.0 0.00 0.00 0.00 1017.8
20260831131911 0 0.0 0.0 0.00 0.00 0.00 1017.9
20260831131402 0 0.0 0.0 0.00 0.00 0.00 1017.9
20260831130849 0 0.0 0.0 0.00 0.00 0.00 1017.9
20260831130345 0 0.0 0.0 0.00 0.00 0.00 1017.9
20260831125834 0 0.0 0.0 0.00 0.00 0.00 1017.8
20260831125317 0 0.0 0.0 0.00 0.00 0.00 1017.7
20260831124807 0 0.0 0.0 0.00 0.00 0.00 1017.7
20260831124237 0 0.0 0.0 0.00 0.00 0.00 1017.7
20260831123707 0 0.0 0.0 0.00 0.00 0.00 1017.7
20260831123424 0 0.0 0.0 0.00 0.00 0.00 1017.6
20260831122619 0 0.0 0.0 0.00 0.00 0.00 1017.6
20260831122328 0 0.0 0.0 0.00 0.00 0.00 1017.5
20260831121809 0 0.0 0.0 0.00 0.00 0.00 1017.5
20260831121246 0 0.0 0.0 0.00 0.00 0.00 1017.4
20260831120511 0 0.0 0.0 0.00 0.00 0.00 1017.4
20260831115956 0 0.0 0.0 0.00 0.00 0.00 1017.5
20260831115450 0 0.0 0.0 0.00 0.00 0.00 1017.6